This is the latest recevied weather packets stored in our database for station/object W2OBX. If no packets are shown the sender has not sent any weather packets the latest 10 day(s).
| Time | Temp. | Humidity | Pressure | Rain* | Wind** | Luminosity | Snow |
|---|---|---|---|---|---|---|---|
| 1777153963 | 17.78° C | 95% | 1011 hPa | 0 mm | - | 18 W/m² | - |
| 1777153659 | 17.78° C | 95% | 1010.8 hPa | 0 mm | - | 22 W/m² | - |
| 1777153356 | 17.78° C | 95% | 1010.8 hPa | 0 mm | - | 28 W/m² | - |
| 1777153052 | 18.33° C | 95% | 1010.9 hPa | 0 mm | - | 26 W/m² | - |
| 1777152749 | 18.33° C | 95% | 1010.8 hPa | 0 mm | - | 24 W/m² | - |
| 1777152445 | 18.33° C | 95% | 1010.8 hPa | 0 mm | - | 25 W/m² | - |
| 1777152141 | 18.33° C | 95% | 1011 hPa | 0 mm | - | 28 W/m² | - |
| 1777151836 | 18.33° C | 95% | 1010.9 hPa | 0 mm | - | 32 W/m² | - |
| 1777151533 | 18.33° C | 95% | 1011 hPa | 0 mm | - | 38 W/m² | - |
| 1777151229 | 18.33° C | 95% | 1011.1 hPa | 0 mm | - | 39 W/m² | - |
| 1777150924 | 18.33° C | 95% | 1011.1 hPa | 0 mm | - | 52 W/m² | - |
| 1777150619 | 18.33° C | 95% | 1011.1 hPa | 0 mm | - | 49 W/m² | - |
| 1777150315 | 18.33° C | 95% | 1011.1 hPa | 0 mm | - | 74 W/m² | - |
| 1777150013 | 18.33° C | 95% | 1010.9 hPa | 0 mm | - | 62 W/m² | - |
| 1777149708 | 18.33° C | 95% | 1010.9 hPa | 0 mm | - | 61 W/m² | - |
| 1777149405 | 18.33° C | 95% | 1011.1 hPa | 0 mm | - | 35 W/m² | - |
| 1777149101 | 18.33° C | 95% | 1011 hPa | 0 mm | - | 25 W/m² | - |
| 1777148795 | 18.33° C | 95% | 1011.2 hPa | 0 mm | - | 27 W/m² | - |
| 1777148492 | 18.33° C | 95% | 1011.1 hPa | 0 mm | - | 42 W/m² | - |
| 1777148188 | 18.33° C | 96% | 1011.1 hPa | 0 mm | - | 51 W/m² | - |
| 1777147885 | 18.33° C | 96% | 1011.2 hPa | 0 mm | - | 64 W/m² | - |
| 1777147581 | 18.33° C | 96% | 1011.3 hPa | 0 mm | - | 95 W/m² | - |
| 1777147276 | 17.78° C | 96% | 1011.3 hPa | 0 mm | - | 108 W/m² | - |
| 1777146972 | 17.78° C | 96% | 1011.3 hPa | 0 mm | - | 79 W/m² | - |
| 1777146668 | 17.78° C | 96% | 1011.3 hPa | 0 mm | - | 120 W/m² | - |
* Rain latest hour (hover to see other rain measurements)
** Current wind speed in m/s (hover to see current wind gust speed)